sat.trackr.live / text

‹ back to catalog

STARLINK-11118 [DTC]

NORAD 59754 · 2024-091B

PAYLOAD ACTIVE UNKNOWN

§ Identity

Operator
Country
US
Launch date
2024-05-14
Launch site
AFWTR
Launch vehicle
Mass (kg)
RCS (m²)

Purposes: comms

External: N2YO · Heavens-Above · Gunter

§ Orbital elements

Epoch: 2026-05-24T13:12:40.409280Z

Period
91.74 min
Inclination
53.1595°
Eccentricity
0.0001223
Mean motion
15.69704269 rev/d
Perigee alt
358.9 km
Apogee alt
360.6 km
Semi-major
6,737.9 km
B*
7.8186e-6
RAAN
192.6272°
Arg perigee
67.3194°
Mean anomaly
292.7954°
Rev number
11,742

§ Raw data

STARLINK-11118 [DTC]1 59754U 24091B   26144.55046770  .00000358  00000+0  78186-5 0  99972 59754  53.1595 192.6272 0001223  67.3194 292.7954 15.69704269117429

JSON: /api/v1/satellites/59754 · /tle

For live sub-satellite position, see the globe view (requires WebGL).

§ Visibility from observer

Set your observer location to see the next 7 days of passes ≥ 10°. The values pass through the URL so the page stays shareable.

No JS? Fill the form by hand. The geolocation button needs JavaScript.